Location: Overspoor
(51.4747°N, 5.6641°E)
Time: 15:04:46
(UTC+02:00)

DX 1 - Visible Passes

Search period start: 25 June 2022 00:00
Search period end: 05 July 2022 00:00
Orbit: 618 x 628 km, 98.4° (Epoch: 25 June)

Date Brightness Start Highest point End Pass type
(mag) Time Alt. Az. Time Alt. Az. Time Alt. Az.
25 Jun ? 00:04:49 10° N 00:08:30 27° WNW 00:12:11 10° WSW visible
25 Jun ? 22:46:31 10° NNE 22:50:54 63° ESE 22:55:13 10° S visible
26 Jun ? 00:23:26 10° NNW 00:26:36 20° WNW 00:29:47 10° WSW visible
26 Jun ? 23:04:46 10° NNE 23:09:11 89° WNW 23:13:34 10° SSW visible
27 Jun ? 00:42:15 10° NNW 00:44:41 15° NW 00:47:06 10° W visible
27 Jun ? 23:23:06 10° N 23:27:26 61° WNW 23:31:45 10° SSW visible
28 Jun ? 01:01:40 10° NW 01:02:42 11° NW 01:03:43 10° WNW visible
28 Jun ? 23:41:30 10° N 23:45:38 42° WNW 23:49:46 10° SW visible
29 Jun ? 23:59:58 10° N 00:03:48 30° WNW 00:07:37 10° SW visible
30 Jun ? 22:41:47 10° NNE 22:46:06 55° E 22:50:24 10° S visible
01 Jul ? 00:18:32 10° N 00:21:55 22° WNW 00:25:16 10° WSW visible
01 Jul ? 23:00:01 10° NNE 23:04:25 81° ESE 23:08:47 10° SSW visible
02 Jul ? 00:37:16 10° NNW 00:39:59 16° NW 00:42:40 10° W visible
02 Jul ? 23:18:18 10° N 23:22:40 70° WNW 23:27:01 10° SSW visible
03 Jul ? 00:56:22 10° NNW 00:58:00 12° NW 00:59:39 10° WNW visible
03 Jul ? 23:36:40 10° N 23:40:53 48° WNW 23:45:05 10° SW visible
